Search for airport 
image banner adimage banner adimage banner ad
image banner ad

KEKO - Elko Rgnl

Located in Elko, United States

ICAO - EKO, IATA - EKO

Data provided by Airmate  

General information

Coordinates: N40°49'30" W115°47'29"
Elevation is 5140 feet MSL.
Magnetic variation is 12° East
View others Airports in Nevada

Operational data

Special qualification required
Current time UTC:
Current local time:
Weather
METAR: KEKO 130256Z AUTO 33006KT 10SM CLR 28/M01 A2999 RMK AO2 SLP100 T02781006 55004
TAF: KEKO 122320Z 1300/1324 VRB06KT P6SM FEW200 FM131900 20007G17KT P6SM SKC
View NOTAMs / SUP AIP / TFR affecting this airport [VIEW]
Communications frequencies: [VIEW]

Runways:

RWY identifierQFULength (ft)Width (ft)SurfaceLDA (ft)
12134°301560ASPH2106
30314°301560ASPH2871
0669°7454150ASPH7217
24249°7454150ASPH6419

Airport contact information

Address: Elko United States

Other aviation service providers

Flight schools

Mountain West Aviation / El Aero Services

Mountain West Aviation / El Aero Services

Satellite view of KEKO